Location: Gajan
(43.0218°N, 1.1244°E)
Time: 16:04:10
(UTC+00:00)

Cosmos 2279 Rocket - Pass Details

Date: 22 April 2021
Orbit: 964 x 978 km, 82.9° (Epoch: 12 May)

Event Time Altitude Azimuth Distance (km) Brightness Sun altitude
Rises 19:23:27 0° 165° (SSE) 3,637 6.6 -7.1°
Reaches altitude 10° 19:26:03 10° 159° (SSE) 2,694 5.9 -7.6°
Maximum altitude 19:31:49 43° 89° (E) 1,324 4.3 -8.5°
Drops below altitude 10° 19:37:37 10° 21° (NNE) 2,713 6.4 -9.5°
Sets 19:40:14 0° 15° (NNE) 3,665 7.2 -9.9°
